Content
SEND FEEDBACK

Daily
Averages
Monthly
Summary
South Korea

PYONGT'AEK, SOUTH KOREA


Home > Asia > South Korea
Elevation: 46 feet     Latitude: 36 57N     Longitude: 127 02E

WEATHER
 
SELECT A DAY
Number of Records: 132,765;   Date Range: 8/1/96 - 8/10/14
 
SHARE

PRINT THIS DATA

[ ← Previous Day ]
WEATHER ALMANAC - JANUARY 31, 2013
[ Next Day → ]
[ °C ]   °F
Weather ElementAverageHighLow
Temperature38.4 °F55.6 °F (2:55 pm)28 °F (6:00 am)
Dewpoint34.4 °F42.8 °F (11:55 am)26 °F (6:00 am)
Humidity87.3 %100 % (12:55 am)26 % (3:00 pm)
Barometer30.43 in30.52 in (9:00 am)30.29 in (11:55 pm)
Wind Speed3.3 mph10.4 mph (7:55 pm)
Weather ElementAverage
Visibility4 mi
Wind DirectionE (91.7 °)

Weather ElementTotal
Precipitation---
Heating Degree Days23.2 (Base 65)
Averaged from 57 records on January 31, 2013
WEATHER CONDITIONS BREAKOUT
WIND DIRECTION BREAKOUT
WEATHER BY HOUR - JANUARY 31, 2013
[ °C ]   °F
Local TimeTemperatureDewpointHumidityBarometerVisibilityWind DirectionWind SpeedGust SpeedPrecipitationEventsConditions
12:55 AM33.8 °F33.8 °F100 %30.43 in3.0 miCalmClear
1:51 AM33.8 °F33.8 °F100 %30.44 in2.5 miCalmClear
1:55 AM32.5 °F32.5 °F100 %30.44 in2.5 miCalmClear
1:58 AM32.0 °F32.0 °F100 %30.44 in2.5 miCalmClear
2:00 AM32.0 °F32.0 °F100 %30.45 in3.0 miCalmClear
2:09 AM32.0 °F32.0 °F100 %30.45 in2.5 miCalmClear
2:50 AM32.0 °F32.0 °F100 %30.45 in2.0 miSSE (160°)3.5 mphOvercast
2:55 AM31.8 °F31.8 °F100 %30.45 in2.0 miCalmOvercast
3:00 AM31.0 °F28.0 °F85 %30.49 inEast (90°)2.2 mph
3:03 AM32.0 °F32.0 °F100 %30.45 in2.5 miSE (140°)4.6 mphMostly Cloudy
3:15 AM32.0 °F32.0 °F100 %30.45 in3.0 miESE (120°)4.6 mphScattered Clouds
3:27 AM33.8 °F33.8 °F100 %30.45 in3.0 miCalmScattered Clouds
3:35 AM33.8 °F33.8 °F100 %30.45 in2.5 miCalmPartly Cloudy
3:46 AM32.0 °F32.0 °F100 %30.45 in2.5 miESE (110°)3.5 mphPartly Cloudy
3:48 AM33.8 °F33.8 °F100 %30.45 in3.0 miESE (110°)3.5 mphPartly Cloudy
3:55 AM33.1 °F33.1 °F100 %30.45 in3.0 miESE (110°)3.5 mphClear
3:57 AM32.0 °F32.0 °F100 %30.45 in2.5 miCalmClear
4:16 AM32.0 °F32.0 °F100 %30.45 in2.5 miEast (100°)3.5 mphClear
4:17 AM32.0 °F32.0 °F100 %30.45 in3.0 miESE (110°)3.5 mphClear
4:34 AM33.8 °F33.8 °F100 %30.45 in3.0 miESE (120°)3.5 mphMostly Cloudy
4:36 AM33.8 °F33.8 °F100 %30.45 in2.5 miESE (110°)3.5 mphMostly Cloudy
4:42 AM32.0 °F32.0 °F100 %30.45 in3.0 miEast (100°)3.5 mphScattered Clouds
4:55 AM34.2 °F34.2 °F100 %30.45 in3.0 miESE (120°)3.5 mphScattered Clouds
5:55 AM34.2 °F34.2 °F100 %30.45 in3.0 miESE (110°)3.5 mphClear
6:00 AM28.0 °F26.0 °F88 %30.49 inCalm
6:19 AM33.8 °F33.8 °F100 %30.45 in3.0 miSE (130°)5.8 mphClear
6:23 AM33.8 °F33.8 °F100 %30.45 in3.0 miESE (110°)6.9 mphClear
6:55 AM34.2 °F34.2 °F100 %30.45 in3.0 miESE (120°)4.6 mphClear
7:28 AM33.8 °F33.8 °F100 %30.46 in2.5 miCalmClear
7:33 AM33.8 °F33.8 °F100 %30.46 in2.0 miESE (110°)3.5 mphClear
7:41 AM32.0 °F32.0 °F100 %30.47 in2.5 miESE (120°)3.5 mphClear
7:55 AM33.3 °F33.3 °F100 %30.47 in2.5 miESE (110°)3.5 mphClear
8:28 AM33.8 °F33.8 °F100 %30.48 in2.0 miESE (120°)3.5 mphClear
8:41 AM33.8 °F33.8 °F100 %30.48 in2.5 miESE (120°)3.5 mphClear
8:55 AM34.9 °F34.9 °F100 %30.48 in2.5 miESE (120°)3.5 mphClear
8:58 AM35.6 °F35.6 °F100 %30.48 in2.0 miSE (130°)3.5 mphClear
9:00 AM31.0 °F29.0 °F90 %30.52 inCalm
9:13 AM37.4 °F37.4 °F100 %30.48 in2.5 miEast (100°)3.5 mphClear
9:19 AM37.4 °F37.4 °F100 %30.48 in3.0 miEast (100°)4.6 mphClear
9:55 AM41.0 °F41.0 °F100 %30.48 in3.0 miEast (100°)5.8 mphClear
11:55 AM50.5 °F42.8 °F75 %30.45 in6.0 miSE (140°)8.1 mphHaze
12:00 PM46.0 °F31.0 °F43 %30.47 inCalm
12:55 PM53.1 °F40.8 °F63 %30.42 in7.0 miESE (110°)4.6 mphClear
1:55 PM55.2 °F42.4 °F62 %30.39 in9.0 miSE (140°)4.6 mphClear
2:55 PM55.6 °F42.1 °F60 %30.38 in10.0 miSSE (160°)8.1 mphPartly Cloudy
3:00 PM55.0 °F30.0 °F26 %30.38 inWSW (250°)4.5 mph
3:55 PM55.6 °F34.2 °F44 %30.36 in10.0 miESE (120°)6.9 mphMostly Cloudy
4:55 PM54.5 °F32.5 °F43 %30.35 in10.0 miEast (90°)6.9 mphOvercast
5:55 PM52.2 °F36.0 °F54 %30.35 in9.0 miCalmScattered Clouds
6:00 PM49.0 °F26.0 °F28 %30.39 inSE (140°)2.3 mph
6:55 PM49.3 °F40.3 °F71 %30.36 in8.0 miEast (90°)4.6 mphClear
7:55 PM49.8 °F41.7 °F74 %30.34 in7.0 miESE (110°)10.4 mphClear
8:55 PM47.5 °F42.1 °F82 %30.33 in7.0 miEast (100°)4.6 mphPartly Cloudy
9:00 PM47.0 °F26.0 °F32 %30.37 inSouth (180°)6.7 mph
9:55 PM46.6 °F41.4 °F82 %30.32 in7.0 miEast (100°)3.5 mphClear
10:55 PM45.7 °F41.7 °F86 %30.30 in7.0 miESE (120°)9.2 mphScattered Clouds
11:55 PM44.8 °F41.9 °F90 %30.29 in7.0 miCalmOvercast
Hourly data recorded from RKSG, located miles away from Pyongt'aek, South Korea







STORIES FROM OUR PARTNERS